{"data":{"norad_id":44231,"intl_designator":"2019-027A","name":"BEIDOU-2 G8 (C01)","alt_names":[],"object_type":"PAYLOAD","status":"ACTIVE","operator":null,"country":"PRC","launch_date":"2019-05-17","launch_site_code":"XICLF","launch_vehicle":null,"mission":null,"orbit_class":"UNKNOWN","rcs_meters":null,"size_class":null,"mass_kg":null,"dimensions":null,"purposes":["comms","nav"],"wikipedia_slug":null,"has_3d_model":false,"image_url":null,"decayed_at":null,"tle_current":{"epoch":"2026-05-25T04:25:50.810304Z","epoch_age_seconds":55572,"freshness":"FRESH","line1":"1 44231U 19027A   26145.18461586 -.00000249  00000+0  00000+0 0  9994","line2":"2 44231   1.6023  74.4719 0010611 281.5667  97.6925  1.00269167 25854","mean_motion":1.00269167,"eccentricity":0.0010611,"inclination_deg":1.6023,"raan_deg":74.4719,"arg_perigee_deg":281.5667,"mean_anomaly_deg":97.6925,"bstar":0,"rev_number":2585,"period_min":1436.1344001192,"perigee_km":35742.587121732,"apogee_km":35832.070673459,"semimajor_km":42165.465897596,"source":"CELESTRAK","updated_at":"2026-05-25T13:38:24.221601Z"}}}